Regional Weather Roundup
Issued by NWS

Home | Current Version | Previous Version | Text Only | Print | Product List | Glossary Off
Versions: 1 2 3 4 5 6 7 8 9 10 11 12 13 14 15 16 17 18 19 20 21 22 23 24 25 26 27 28 29 30 31 32 33 34 35 36 37 38 39 40 41 42 43 44 45 46 47 48 49 50

000
ASUS43 KMPX 231701
RWRMN
WEATHER ROUNDUP FOR MINNESOTA
NATIONAL WEATHER SERVICE TWIN CITIES/CHANHASSEN MN
1100 AM CST FRI FEB 23 2018


NOTE: "FAIR" INDICATES FEW OR NO CLOUDS BELOW 12,000 FEET WITH NO
SIGNIFICANT WEATHER AND/OR OBSTRUCTIONS TO VISIBILITY. N/A MEANS
CURRENT SKY AND/OR WEATHER CONDITIONS ARE NOT AVAILABLE.

MNZ060>063-068>070-231800-
   Twin Cities Metro

CITY           SKY/WX    TMP DP  RH WIND       PRES   REMARKS
TWIN CITIES    CLOUDY    28  23  81 W12       30.16R WCI  18
ST PAUL        CLOUDY    28  22  78 W10       30.16R WCI  19
CRYSTAL        PTSUNNY   28  21  75 W10       30.14R WCI  19
BLAINE         CLOUDY    30  23  74 W13       30.12R WCI  20
LAKEVILLE      CLOUDY    25  21  86 W8        30.15R WCI  16
EDEN PRAIRIE   PTSUNNY   28  20  71 W12       30.15R WCI  18
SOUTH ST PAUL  FAIR      28  22  77 W8        30.15R WCI  20
LAKE ELMO      CLOUDY    28  23  80 W9        30.13R WCI  20
$$
MNZ001>005-007-008-013>017-022>024-027-028-231800-
   Northwest Minnesota

CITY           SKY/WX    TMP DP  RH WIND       PRES   REMARKS
BEMIDJI        FLURRIES  22  17  81 W7        30.10S WCI  14
HALLOCK        FAIR      12   5  73 NW9       30.18R WCI   0
ROSEAU         FAIR      14   9  79 W9        30.12R WCI   2
WARROAD        FAIR      19  12  73 SW5       30.10S WCI  13
THIEF RVR FALL FAIR      13   5  70 W13       30.16R WCI  -2
CROOKSTON      FAIR      14   7  73 NW12      30.20R WCI   0
FOSSTON        PTSUNNY   21  10  63 W6        30.14F WCI  14
DETROIT LAKES  PTSUNNY   19  18  93 NW13      30.16R WCI   7
MOORHEAD       PTSUNNY   18  12  79 NW9       30.22R WCI   6
PARK RAPIDS    FAIR      24  19  81 W10       30.10R WCI  14
MAHNOMEN       FAIR      15  11  83 NW7       30.15R WCI   5
$$
MNZ006-009>011-018-025>026-231800-
   North Central Minnesota

CITY           SKY/WX    TMP DP  RH WIND       PRES   REMARKS
BAUDETTE       PTSUNNY   20  13  74 W3        30.08R
FLAG ISLAND    FAIR      16   9  73 N5        30.08S WCI   9
INTL FALLS     CLOUDY    23  18  81 NW3       30.06S
WASKISH        LGT SNOW  21  18  86 W6        30.10R WCI  14
BIG FORK       FLURRIES  27  19  74 CALM      30.06R
LONGVILLE      CLOUDY    25  19  80 W6        30.10R WCI  18
GRAND RAPIDS   FLURRIES  27  20  75 NW9       30.08R WCI  18
CRANE LAKE     FLURRIES  23  19  86 NW6       30.06S WCI  16
ORR            MIX PCPN  23  18  80 NW7       30.02R WCI  15
COOK             N/A     25  19  80 W7        30.03R WCI  17
WALKER         LGT SNOW  23  17  78 NW10      30.10R WCI  13
$$
MNZ012-019>021-037-231800-
   Northeast Minnesota

CITY           SKY/WX    TMP DP  RH WIND       PRES   REMARKS
DULUTH         CLOUDY    27  22  81 W14       30.01R WCI  16
ELY            PTSUNNY   25  19  80 NW7       30.00R WCI  17
HIBBING        LGT SNOW  23  19  85 NW9       30.03R FOG     WCI  13
DULUTH HARBOR  FLURRIES  30  25  80 W13       30.06S WCI  20
TWO HARBORS    FLURRIES  34  25  69 W7        30.00R WCI  28
SILVER BAY     FLURRIES  32  27  80 CALM      29.98R
GRAND MARAIS     N/A     30  25  81 SW7       29.99R WCI  23
G MARAIS ARPRT CLOUDY    25  18  74 NW6       29.93R WCI  18
$$
MNZ029>031-032-039>041-046>048-054>057-064-231800-
   West Central Minnesota

CITY           SKY/WX    TMP DP  RH WIND       PRES   REMARKS
FERGUS FALLS   PTSUNNY   18  16  93 NW13      30.20R WCI   4
WHEATON        LGT SNOW  19  14  79 W13G20    30.25R VSB 3/4 WCI   7
MORRIS         SUNNY     21  18  86 NW16      30.20R WCI   7
ALEXANDRIA     FAIR      22  17  81 NW14      30.15R WCI   9
ELBOW LAKE     FAIR      18  15  89 NW10      30.19R WCI   6
WADENA         FAIR      25  18  74 NW10      30.13R WCI  15
GLENWOOD       FAIR      23  18  80 W10       30.16R WCI  12
APPLETON       CLOUDY    21  19  93 NW16      30.22R FOG     WCI   7
BENSON           N/A     21  18  86 N16       30.21R WCI   7
ORTONVILLE     SUNNY     21  18  86 NW12      30.22R WCI   9
MADISON          N/A     25  19  80 NW14      30.23R WCI  13
WILLMAR        PTSUNNY   21  18  86 NW13      30.20R WCI   9
$$
MNZ033>034-036-042>043-049>051-058-059-231800-
   Central Minnesota

CITY           SKY/WX    TMP DP  RH WIND       PRES   REMARKS
ST CLOUD       FAIR      26  19  74 NW14      30.12R WCI  14
SAUK CENTRE    FAIR      23  18  81 W12       30.15R HAZE    WCI  12
PAYNESVILLE    FAIR      25  20  83 W14       30.16R WCI  13
AITKIN         CLOUDY    25  18  74 W6        30.07R WCI  18
PINE RIVER     FLURRIES  21  18  86 NW6       30.13R WCI  14
BRAINERD       PTSUNNY   26  18  71 NW10      30.10S WCI  16
STAPLES        CLOUDY    25  18  74 NW10      30.12R WCI  15
LONG PRAIRIE   FAIR      25  19  80 W14       30.13R HAZE    WCI  13
LITTLE FALLS   FAIR      27  16  63 W9        30.13R WCI  17
LITCHFIELD     FAIR      27  19  74 W9        30.16R WCI  17
BUFFALO        FAIR      28  20  70 W9        30.16R WCI  19
MAPLE LAKE     FAIR      29  21  73 W8        30.16R WCI  21
HUTCHINSON     FAIR      24  20  85 W10       30.18R WCI  13
$$
MNZ037-044-045-052-053-231800-
   East Central Minnesota

CITY           SKY/WX    TMP DP  RH WIND       PRES   REMARKS
PRINCETON      FAIR      28  21  74 W10       30.13R WCI  19
CAMBRIDGE        N/A     28  21  74 W9        30.12R WCI  20
RUSH CITY      PTSUNNY   30  22  72 NW8       30.10R WCI  23
MOOSE LAKE     CLOUDY    30  21  69 NW9G17    30.04S WCI  22
HINCKLEY       PTSUNNY   30  23  74 NW8G16    30.08S WCI  23
CLOQUET        FLURRIES  27  19  74 W13       30.03R WCI  16
MCGREGOR       CLOUDY    27  21  80 W9        30.08R WCI  17
$$
MNZ071>073-080-081-089-090-097-098-231800-
   Southwest Minnesota

CITY           SKY/WX    TMP DP  RH WIND       PRES   REMARKS
MONTEVIDEO     PTSUNNY   28  21  74 N15G22    30.21R HAZE    WCI  17
GRANITE FALLS  SUNNY     21  19  89 W9        30.22R WCI  11
CANBY          SUNNY     25  19  80 W16       30.23R WCI  12
MARSHALL       SUNNY     24  18  77 NW16      30.21R WCI  11
REDWOOD FALLS  CLOUDY    20  17  88 W10       30.21R FOG     WCI   9
OLIVIA         CLOUDY    23  19  86 W12       30.18S WCI  12
PIPESTONE      CLOUDY    21  19  93 NW10      30.19R WCI  10
WORTHINGTON    MOSUNNY   25  19  78 W9        30.22R WCI  15
JACKSON        SUNNY     23  18  80 W9        30.22R WCI  13
TRACY          SUNNY     24  20  83 NW12G18   30.21R WCI  13
SLAYTON        MOSUNNY   24  20  85 W12       30.21R WCI  12
$$
MNZ065>067-074>077-082>085-091>093-231800-
   South Central Minnesota

CITY           SKY/WX    TMP DP  RH WIND       PRES   REMARKS
MANKATO        CLOUDY    22  18  85 W10       30.21R FOG     WCI  11
NEW ULM        SUNNY     19  16  86 W9        30.21R FOG     WCI   9
ST JAMES       SUNNY     23  18  80 W12       30.22S WCI  12
FAIRMONT       SUNNY     26  19  74 W13       30.23R WCI  15
GLENCOE        FAIR      26  22  85 W8        30.17R FOG     WCI  17
FARIBAULT      FAIR      25  21  86 W9        30.19R FOG     WCI  15
OWATONNA       FAIR      23  19  86 W13       30.18R FOG     WCI  11
WASECA         CLOUDY    23  19  86 W12       30.21R FOG     WCI  12
ALBERT LEA     PTSUNNY   21  18  86 W8        30.20R WCI  12
$$
MNZ078>079-086>088-094>096-231800-
   Southeast Minnesota

CITY           SKY/WX    TMP DP  RH WIND       PRES   REMARKS
ROCHESTER      CLOUDY    23  21  92 W20       30.16R WCI   8
RED WING       CLOUDY    28  21  74 W10       30.16R WCI  19
STANTON        CLOUDY    26  22  83 W9        30.17R WCI  17
DODGE CENTER   CLOUDY    21  19  93 W10       30.17R FOG     WCI  10
WINONA         FLURRIES  32  27  80 W6        30.17R WCI  26
AUSTIN         CLOUDY    23  19  86 W12       30.19R WCI  12
PRESTON        PTSUNNY   26  22  86 W13       30.17R WCI  15
$$
ABBREVIATIONS USED IN REMARKS
   TC - TEMPERATURES IN CELSIUS
  WCI - WIND CHILL INDEX
   HX - HEAT INDEX
  VSB - VISIBILITY
$$



USA.gov is the U.S. government's official web portal to all federal, state and local government web resources and services.